Terminal Aerodrome Forecast
Issued by NWS

Home | Current Version | Previous Version | Text Only | Print | Product List | Glossary On
Versions: 1 2 3 4 5 6 7 8 9 10 11 12
000
FTUS45 KRIW 251700
TAFCPR
TAF
KCPR 251723Z 2518/2618 22009KT P6SM FEW120
     FM252000 26012G18KT P6SM VCTS SCT110CB
     FM260100 31009KT P6SM VCSH SCT120
     FM260400 VRB06KT P6SM SKC=

USA.gov is the U.S. government's official web portal to all federal, state and local government web resources and services.